When you browse on this site, cookies collect data to enhance your experience and personalize the content and advertising you see.
Visit our Privacy Policy to learn more. By continuing to use the site, you agree to this use of cookies and data.
  • In Deutschland
  • Länderverzeichnis
  • Für 7 Tage
  • Wassertemperatur
  • Wetterkarte
  • Widgets
  • user-avatar
    Anmelden

    Stündliche Wetter Brummen

    Heute, 25 Februar, Dienstag

    Zeit Temperatur Niederschläge Wind Luftdruck Luftfeuchtigkeit
    00:00 +7°C° 0.1 mm 8 m/S 750 mmHg 82%
    01:00 +6°C° 0 mm 7 m/S 750 mmHg 80%
    02:00 +5°C° 0 mm 6 m/S 750 mmHg 79%
    03:00 +5°C° 0 mm 5 m/S 750 mmHg 77%
    04:00 +5°C° 0 mm 5 m/S 749 mmHg 79%
    05:00 +3°C° 0 mm 5 m/S 749 mmHg 80%
    06:00 +3°C° 0 mm 5 m/S 749 mmHg 82%
    07:00 +3°C° 0 mm 6 m/S 749 mmHg 78%
    08:00 +4°C° 0 mm 7 m/S 749 mmHg 75%
    09:00 +5°C° 0 mm 8 m/S 748 mmHg 72%
    10:00 +5°C° 0.1 mm 8 m/S 748 mmHg 68%
    11:00 +6°C° 0.1 mm 8 m/S 748 mmHg 63%
    12:00 +6°C° 0.1 mm 9 m/S 748 mmHg 59%
    13:00 +6°C° 0.2 mm 9 m/S 747 mmHg 61%
    14:00 +6°C° 0.2 mm 8 m/S 747 mmHg 63%
    15:00 +5°C° 0.2 mm 8 m/S 746 mmHg 65%
    16:00 +4°C° 0 mm 7 m/S 746 mmHg 68%
    17:00 +3°C° 0 mm 6 m/S 746 mmHg 71%
    18:00 +2°C° 0 mm 5 m/S 746 mmHg 75%
    19:00 +3°C° 0 mm 4 m/S 745 mmHg 77%
    20:00 +1°C° 0 mm 4 m/S 745 mmHg 79%
    21:00 +2°C° 0 mm 3 m/S 744 mmHg 81%
    22:00 +1°C° 0.2 mm 4 m/S 744 mmHg 85%
    23:00 +1°C° 0.2 mm 5 m/S 743 mmHg 89%

    Morgen, 26 Februar, Mittwoch

    Zeit Temperatur Niederschläge Wind Luftdruck Luftfeuchtigkeit
    00:00 +1°C° 0.2 mm 5 m/S 743 mmHg 92%
    01:00 0°C° 0.9 mm 5 m/S 742 mmHg 94%
    02:00 0°C° 0.9 mm 5 m/S 742 mmHg 95%
    03:00 0°C° 0.9 mm 5 m/S 741 mmHg 96%
    04:00 0°C° 0.3 mm 5 m/S 742 mmHg 93%
    05:00 0°C° 0.3 mm 5 m/S 742 mmHg 91%
    06:00 +1°C° 0.3 mm 5 m/S 742 mmHg 89%
    07:00 +1°C° 0.1 mm 6 m/S 743 mmHg 85%
    08:00 +2°C° 0.1 mm 6 m/S 744 mmHg 82%
    09:00 +3°C° 0.1 mm 6 m/S 744 mmHg 78%
    10:00 +3°C° 0.2 mm 7 m/S 745 mmHg 75%
    11:00 +4°C° 0.2 mm 7 m/S 746 mmHg 72%
    12:00 +4°C° 0.2 mm 8 m/S 747 mmHg 69%
    13:00 +4°C° 0.4 mm 8 m/S 747 mmHg 70%
    14:00 +4°C° 0.4 mm 8 m/S 748 mmHg 70%
    15:00 +4°C° 0.4 mm 8 m/S 748 mmHg 71%
    16:00 +3°C° 0.1 mm 7 m/S 749 mmHg 75%
    17:00 +2°C° 0.1 mm 6 m/S 750 mmHg 78%
    18:00 +1°C° 0.1 mm 5 m/S 750 mmHg 82%
    19:00 +1°C° 0 mm 4 m/S 751 mmHg 83%
    20:00 +1°C° 0 mm 4 m/S 751 mmHg 84%
    21:00 0°C° 0 mm 4 m/S 751 mmHg 84%
    22:00 0°C° 0.1 mm 4 m/S 752 mmHg 84%
    23:00 0°C° 0.1 mm 4 m/S 752 mmHg 84%

    übermorgen, 27 Februar, Donnerstag

    Zeit Temperatur Niederschläge Wind Luftdruck Luftfeuchtigkeit
    00:00 +1°C° 0.1 mm 4 m/S 752 mmHg 84%
    01:00 0°C° 0 mm 4 m/S 752 mmHg 83%
    02:00 0°C° 0 mm 4 m/S 752 mmHg 83%
    03:00 -1°C° 0 mm 4 m/S 752 mmHg 82%
    04:00 -1°C° 0 mm 5 m/S 752 mmHg 82%
    05:00 -1°C° 0 mm 5 m/S 751 mmHg 82%
    06:00 -1°C° 0 mm 5 m/S 751 mmHg 82%
    07:00 0°C° 0.1 mm 5 m/S 750 mmHg 86%
    08:00 -1°C° 0.1 mm 6 m/S 749 mmHg 89%
    09:00 -1°C° 0.1 mm 6 m/S 749 mmHg 92%
    10:00 0°C° 0.4 mm 5 m/S 748 mmHg 93%
    11:00 0°C° 0.4 mm 5 m/S 747 mmHg 95%
    12:00 0°C° 0.4 mm 4 m/S 747 mmHg 96%
    13:00 0°C° 0.8 mm 4 m/S 746 mmHg 96%
    14:00 +1°C° 0.8 mm 3 m/S 746 mmHg 96%
    15:00 +1°C° 0.8 mm 3 m/S 745 mmHg 97%
    16:00 +1°C° 0.7 mm 3 m/S 746 mmHg 95%
    17:00 0°C° 0.7 mm 4 m/S 747 mmHg 94%
    18:00 0°C° 0.7 mm 4 m/S 747 mmHg 93%
    19:00 0°C° 0 mm 4 m/S 748 mmHg 91%
    20:00 -1°C° 0 mm 4 m/S 749 mmHg 88%
    21:00 -1°C° 0 mm 4 m/S 750 mmHg 86%
    22:00 -1°C° 0 mm 4 m/S 751 mmHg 86%
    23:00 -1°C° 0 mm 4 m/S 752 mmHg 87%

    28 Februar, Freitag

    Zeit Temperatur Niederschläge Wind Luftdruck Luftfeuchtigkeit
    00:00 -1°C° 0 mm 4 m/S 753 mmHg 87%
    01:00 -1°C° 0 mm 4 m/S 753 mmHg 86%
    02:00 -1°C° 0 mm 5 m/S 754 mmHg 86%
    03:00 -1°C° 0 mm 5 m/S 755 mmHg 85%
    04:00 -1°C° 0 mm 5 m/S 755 mmHg 85%
    05:00 -1°C° 0 mm 5 m/S 756 mmHg 86%
    06:00 -1°C° 0 mm 5 m/S 757 mmHg 86%
    07:00 0°C° 0 mm 5 m/S 757 mmHg 83%
    08:00 +1°C° 0 mm 5 m/S 758 mmHg 80%
    09:00 +2°C° 0 mm 6 m/S 758 mmHg 77%
    10:00 +3°C° 0 mm 6 m/S 758 mmHg 74%
    11:00 +3°C° 0 mm 6 m/S 759 mmHg 72%
    12:00 +4°C° 0 mm 6 m/S 759 mmHg 69%
    13:00 +5°C° 0 mm 5 m/S 758 mmHg 70%
    14:00 +5°C° 0 mm 5 m/S 758 mmHg 70%
    15:00 +5°C° 0 mm 4 m/S 758 mmHg 71%
    16:00 +4°C° 0 mm 4 m/S 757 mmHg 75%
    17:00 +3°C° 0 mm 3 m/S 757 mmHg 79%
    18:00 +3°C° 0 mm 2 m/S 757 mmHg 84%
    19:00 +2°C° 0 mm 3 m/S 756 mmHg 85%
    20:00 +2°C° 0 mm 3 m/S 756 mmHg 85%
    21:00 +2°C° 0 mm 3 m/S 755 mmHg 86%
    22:00 +1°C° 0 mm 4 m/S 754 mmHg 86%
    23:00 +1°C° 0 mm 4 m/S 753 mmHg 85%

    29 Februar, Samstag

    Zeit Temperatur Niederschläge Wind Luftdruck Luftfeuchtigkeit
    00:00 +1°C° 0 mm 5 m/S 752 mmHg 85%
    01:00 +1°C° 0.2 mm 5 m/S 750 mmHg 88%
    02:00 +1°C° 0.2 mm 6 m/S 749 mmHg 90%
    03:00 +1°C° 0.2 mm 6 m/S 747 mmHg 93%
    04:00 +2°C° 1.1 mm 6 m/S 746 mmHg 94%
    05:00 +3°C° 1.1 mm 6 m/S 745 mmHg 95%
    06:00 +4°C° 1.1 mm 6 m/S 744 mmHg 96%
    07:00 +5°C° 0.3 mm 7 m/S 743 mmHg 92%
    08:00 +6°C° 0.3 mm 7 m/S 742 mmHg 89%
    09:00 +7°C° 0.3 mm 8 m/S 741 mmHg 85%
    10:00 +7°C° 1.1 mm 8 m/S 741 mmHg 82%
    11:00 +7°C° 1.1 mm 8 m/S 740 mmHg 80%
    12:00 +7°C° 1.1 mm 8 m/S 740 mmHg 77%
    13:00 +7°C° 0.3 mm 9 m/S 741 mmHg 73%
    14:00 +6°C° 0.3 mm 9 m/S 742 mmHg 69%
    15:00 +5°C° 0.3 mm 9 m/S 742 mmHg 65%
    16:00 +4°C° 0 mm 8 m/S 743 mmHg 67%
    17:00 +3°C° 0 mm 7 m/S 744 mmHg 68%
    18:00 +2°C° 0 mm 6 m/S 744 mmHg 70%
    19:00 +2°C° 0 mm 6 m/S 745 mmHg 71%
    20:00 +2°C° 0 mm 7 m/S 745 mmHg 71%
    21:00 +2°C° 0 mm 7 m/S 746 mmHg 72%
    22:00 0°C° 0 mm 7 m/S 746 mmHg 72%
    23:00 0°C° 0 mm 7 m/S 746 mmHg 72%

    1 März, Sonntag

    Zeit Temperatur Niederschläge Wind Luftdruck Luftfeuchtigkeit
    00:00 0°C° 0 mm 7 m/S 746 mmHg 73%
    01:00 0°C° 0 mm 7 m/S 747 mmHg 74%
    02:00 +1°C° 0 mm 6 m/S 747 mmHg 76%
    03:00 -1°C° 0 mm 6 m/S 747 mmHg 77%
    04:00 -1°C° 0 mm 6 m/S 747 mmHg 78%
    05:00 -1°C° 0 mm 6 m/S 748 mmHg 78%
    06:00 -1°C° 0 mm 6 m/S 748 mmHg 79%
    07:00 0°C° 0.2 mm 7 m/S 748 mmHg 80%
    08:00 0°C° 0.2 mm 8 m/S 748 mmHg 81%
    09:00 +1°C° 0.2 mm 8 m/S 748 mmHg 83%
    10:00 +2°C° 0.4 mm 8 m/S 749 mmHg 78%
    11:00 +2°C° 0.4 mm 8 m/S 749 mmHg 73%
    12:00 +4°C° 0.4 mm 8 m/S 749 mmHg 68%
    13:00 +4°C° 0.5 mm 8 m/S 749 mmHg 67%
    14:00 +4°C° 0.5 mm 7 m/S 749 mmHg 67%
    15:00 +4°C° 0.5 mm 6 m/S 749 mmHg 66%
    16:00 +3°C° 0 mm 5 m/S 749 mmHg 71%
    17:00 +3°C° 0 mm 4 m/S 749 mmHg 77%
    18:00 +2°C° 0 mm 3 m/S 749 mmHg 82%
    19:00 +1°C° 0 mm 3 m/S 750 mmHg 84%
    20:00 +1°C° 0 mm 3 m/S 750 mmHg 86%
    21:00 +1°C° 0 mm 3 m/S 750 mmHg 87%
    22:00 +1°C° 0 mm 3 m/S 750 mmHg 89%
    23:00 0°C° 0 mm 3 m/S 750 mmHg 90%
    Mehr zeigen